Orbital Elements at Epoch 2459200.5 (2020-Dec-17.0) TDB
Reference: JPL 29 (heliocentric ecliptic J2000)
Element | Value | Uncertainty (1-sigma) | Units |
e | .1310910047346099 | 3.1052e-08 | |
a | 2.331631350643982 | 6.0561e-09 | au |
q | 2.025975454217347 | 7.2007e-08 | au |
i | 1.966387490499735 | 2.7743e-06 | deg |
node | 286.9486448083169 | 0.00010706 | deg |
peri | 61.60168394151236 | 0.00010781 | deg |
M | 48.35109041485297 | 1.2493e-05 | deg |
tp | 2459025.840574211827 (2020-Jun-25.34057421) | 4.5167e-05 | TDB |
period | 1300.43382153853 3.56 | 5.0666e-06 1.387e-08 | d yr |
n | .2768306960627092 | 1.0785e-09 | deg/d |
Q | 2.637287247070617 | 6.85e-09 | au |
|
| | Orbit Determination Parameters
Additional Information
|